Simultaneous Nadir Overpasses (SNOs) Predictions

Prediction of SNOs between AQUA and METOP-B Satellite Orbit:

Table of predicted SNOs for the next 14.0 days since TLE Epoch: 5/2/2014
Index Date (AQUA) Time (AQUA) Lat,Lon (AQUA) SZA (AQUA ) Date (METOP-B) Time (METOP-B) Lat,Lon (METOP-B) SZA (METOP-B ) Distance(km) Time Diff (sec)
1 05/04/2014 02:01:58 -73.72, -35.87 122.22 05/04/2014 02:00:45 -73.74, -35.84 122.20 1.84 73
2 05/04/2014 02:51:27 73.79, 131.62 57.84 05/04/2014 02:51:23 73.81, 131.67 57.87 2.95 4
3 05/04/2014 03:40:54 -73.87, -60.92 122.08 05/04/2014 03:42:04 -73.87, -60.87 122.09 1.53 70
4 05/06/2014 21:36:14 -73.73, 30.55 123.01 05/06/2014 21:35:08 -73.75, 30.60 122.98 3.19 66
5 05/06/2014 22:25:43 73.80,-161.97 57.05 05/06/2014 22:25:47 73.78,-162.01 57.04 2.45 4
6 05/06/2014 23:15:13 -74.03, 5.15 122.71 05/06/2014 23:16:24 -74.03, 5.93 122.74 23.82 71
7 05/09/2014 17:10:30 -73.71, 97.00 123.79 05/09/2014 17:09:33 -73.71, 96.90 123.78 3.06 57
8 05/09/2014 17:59:59 73.79, -95.52 56.28 05/09/2014 18:00:11 73.79, -95.58 56.29 1.83 12
9 05/09/2014 18:49:35 -74.33, 70.89 123.16 05/09/2014 18:50:43 -74.29, 72.97 123.26 62.62 68
10 05/12/2014 12:44:46 -73.74, 163.39 124.49 05/12/2014 12:43:57 -73.72, 163.32 124.50 2.73 49
11 05/12/2014 13:34:15 73.81, -29.15 55.58 05/12/2014 13:34:35 73.80, -29.16 55.57 1.72 20
12 05/15/2014 08:19:00 -73.74,-130.18 125.17 05/15/2014 08:18:20 -73.72,-130.28 125.18 3.42 40
13 05/15/2014 09:08:29 73.82, 37.27 54.91 05/15/2014 09:08:58 73.80, 37.24 54.89 2.15 29




NCC Satellite Simultaneous Nadir Overpasses (SNOs) Prediction Service
